Wind_Speed
19 18 18 19 18 19 19 18 18 18 17 17 17 16 16 16 14 13 12 11 10 9 8 8 8 8 7 6 6 7 7 7 8 9 11 11 12 14 17 20 21 21
18 18 18 17 17 18 18 18 18 17 17 17 17 16 16 15 15 13 13 12 12 11 10 9 8 8 8 7 7 7 7 7 7 7 8 9 9 9 11 14 16 17
18 18 18 18 18 17 18 18 17 17 17 16 16 16 15 15 15 14 13 13 12 12 12 11 10 9 8 7 8 8 8 7 7 7 8 8 8 7 7 8 10 11
19 19 18 18 18 18 18 17 17 17 17 16 16 16 16 15 15 14 14 13 13 13 13 12 12 11 10 9 7 7 7 7 6 7 7 8 9 9 8 7 7 8
19 19 19 19 19 19 18 18 17 17 17 17 17 16 17 16 16 15 15 15 14 14 14 13 13 12 12 11 9 7 7 7 6 6 6 7 8 9 10 9 9 8
21 20 20 20 20 19 19 19 19 18 18 18 17 17 17 17 17 17 17 16 16 16 15 15 14 14 13 12 11 10 10 9 8 8 7 7 7 8 9 10 9 9
22 22 22 22 21 21 21 20 20 19 19 19 18 18 18 18 18 18 18 18 17 17 17 17 16 16 15 14 13 13 12 11 11 10 10 9 9 9 9 10 10 10
23 23 23 23 23 22 22 21 21 21 20 20 19 19 19 19 19 19 19 19 19 18 18 18 17 17 17 17 16 15 15 14 13 13 12 12 11 11 10 10 10 11
25 24 24 24 24 24 23 23 23 22 22 22 21 21 21 20 20 20 20 20 20 20 20 19 19 18 18 18 18 17 17 16 16 15 15 14 14 14 13 12 12 11
26 26 25 25 25 25 25 24 24 24 23 23 22 22 22 22 22 21 21 21 21 21 21 21 20 20 20 20 19 19 19 18 18 17 17 16 16 16 15 15 14 14
28 27 27 27 26 26 26 25 25 25 25 24 24 24 23 23 23 23 23 23 22 22 22 22 22 22 22 21 21 21 21 20 20 19 18 18 17 17 17 16 16 15
29 29 29 29 28 28 27 26 26 26 26 26 25 25 25 24 24 24 24 24 24 24 23 23 23 24 24 23 23 23 23 22 22 21 20 20 19 18 18 17 17 17
30 30 30 30 30 30 29 28 27 27 26 26 26 27 26 26 26 25 25 25 25 25 25 25 24 24 25 25 25 25 24 24 24 24 23 22 21 20 19 19 18 18
30 31 31 31 31 31 30 30 29 28 28 27 26 27 27 27 28 27 27 26 26 26 26 26 26 26 26 26 26 26 26 26 26 26 26 25 24 23 22 21 20 20
31 31 31 32 32 32 31 31 31 30 29 28 27 27 27 27 27 28 28 28 27 27 26 26 26 26 26 27 27 27 28 28 28 28 28 28 27 26 25 24 23 22
31 31 31 32 32 32 32 32 32 31 31 30 29 28 28 27 27 27 28 28 29 28 28 27 26 25 26 26 26 27 28 29 30 30 30 30 30 29 29 27 26 25
30 31 31 32 32 32 32 32 32 32 32 31 31 30 29 29 28 28 27 27 28 28 29 28 27 25 26 26 25 25 27 29 31 32 32 31 31 31 31 31 30 28
31 31 31 31 31 32 32 32 32 32 32 32 32 31 30 30 29 29 29 28 28 28 28 28 28 27 27 27 27 27 27 28 31 32 33 33 32 32 33 33 32 31
31 31 31 31 31 31 30 30 31 31 31 31 32 32 31 31 30 30 29 29 29 29 29 28 28 28 28 29 29 29 29 30 31 33 33 34 34 33 34 34 34 34
31 31 31 31 30 30 30 29 29 29 29 30 30 31 31 32 31 31 30 30 30 30 31 30 29 29 30 30 31 32 31 32 33 34 34 35 35 34 34 34 34 35
31 31 30 30 29 29 29 28 28 28 28 28 29 29 30 30 31 31 31 31 31 31 32 32 31 31 31 32 32 33 33 34 36 36 36 36 36 36 35 35 34 34
30 30 29 28 28 28 28 28 27 27 27 27 27 27 28 28 29 29 30 31 31 32 33 34 33 32 33 33 33 33 34 35 37 38 38 38 38 38 37 36 36 35
28 28 28 27 27 26 26 26 26 26 26 27 27 27 27 27 28 28 29 30 31 32 33 34 34 33 33 33 33 33 33 35 36 37 38 39 39 39 38 38 37 36
27 26 26 26 26 25 25 25 25 25 26 26 27 27 27 27 28 28 28 29 30 31 32 33 34 33 32 33 32 32 32 33 35 36 37 38 38 38 38 38 38 38
25 25 25 25 25 25 25 25 24 24 25 25 26 27 28 28 28 28 29 29 29 30 31 32 33 33 31 31 31 30 29 30 32 34 35 36 36 36 37 37 38 38
24 24 24 23 24 24 24 23 24 24 25 25 25 26 27 28 28 29 30 30 30 30 31 31 32 32 31 30 29 28 27 27 29 31 33 33 33 33 35 36 36 36
Wind_Direction
36 35 35 34 34 34 32 32 33 32 34 36 35 34 35 32 29 27 25 20 9 355 341 324 310 300 292 284 269 258 254 255 255 250 245 245 251 257 263 271 275 278
26 26 26 25 26 26 24 22 22 22 24 27 27 28 30 30 27 27 27 25 20 12 4 352 335 319 304 298 294 286 278 272 266 263 256 248 247 250 254 259 265 269
17 16 16 15 15 15 15 14 12 12 13 14 16 16 18 19 19 20 21 22 20 17 15 10 3 351 334 320 311 307 305 297 284 278 274 267 261 259 258 262 265 266
8 7 6 6 6 5 5 3 1 3 2 2 4 4 4 6 7 8 10 11 11 12 12 11 11 10 4 354 338 328 328 322 309 297 287 281 277 272 269 272 279 277
1 359 358 358 358 357 355 353 352 353 353 353 353 353 352 353 354 354 357 359 359 1 2 2 3 5 8 9 2 355 352 343 332 320 306 297 291 286 281 276 278 286
353 353 351 350 350 350 348 347 346 346 346 345 345 344 343 344 343 344 346 348 349 350 351 352 352 352 355 359 0 1 1 358 352 344 330 319 311 302 296 291 284 286
347 347 346 344 344 343 343 342 341 340 340 340 340 337 335 336 336 336 337 339 340 341 342 342 342 343 343 344 346 349 353 354 353 353 348 339 333 321 309 302 294 290
342 342 341 339 338 338 337 337 336 336 335 334 335 333 332 332 330 330 330 331 332 333 334 336 335 335 335 335 335 336 339 342 343 345 346 344 342 339 332 322 309 298
338 338 336 335 334 333 333 333 332 332 331 330 330 329 330 329 327 327 326 325 325 325 326 327 328 329 329 328 328 328 329 331 333 335 336 337 338 339 340 337 329 318
334 334 333 332 331 330 329 329 328 328 327 326 326 326 325 325 325 325 323 322 321 320 320 321 321 322 323 323 322 322 321 322 323 325 326 327 329 330 332 334 334 332
331 331 330 330 329 328 327 326 325 324 324 323 322 322 322 322 321 321 321 321 320 319 319 319 319 318 317 317 317 316 316 315 315 315 316 317 319 321 323 324 325 327
329 328 327 327 327 326 326 325 324 322 321 320 319 319 319 319 319 318 318 318 318 319 319 318 319 318 315 314 313 311 310 309 308 308 307 308 309 311 313 315 316 318
326 326 325 325 324 324 323 323 322 321 319 318 316 316 315 315 315 316 316 316 315 315 316 317 317 317 315 313 311 309 307 304 303 303 301 301 301 302 303 306 307 309
324 323 323 322 322 321 321 320 319 319 318 317 315 314 313 313 312 313 313 313 313 313 313 314 315 315 314 313 310 309 307 304 302 300 299 297 296 296 297 298 299 300
321 320 319 319 318 318 317 317 316 316 316 315 315 313 312 311 311 311 311 310 311 312 312 312 313 315 315 314 313 312 309 306 303 301 299 297 294 293 292 292 293 293
318 317 316 315 315 315 314 314 314 314 314 314 313 313 312 311 310 309 309 309 309 310 311 311 313 314 315 315 315 314 311 308 305 301 300 298 296 293 290 289 290 289
316 314 313 312 312 311 311 311 312 311 312 312 312 312 312 311 310 309 308 308 307 308 309 310 312 314 314 313 314 314 312 310 306 303 300 299 298 296 293 290 288 287
314 312 311 310 309 308 308 308 309 309 310 310 310 311 311 311 311 310 309 308 307 307 307 308 310 312 313 313 312 312 312 310 307 304 302 300 299 298 296 293 291 288
312 310 309 308 307 307 306 306 307 307 308 308 308 309 310 310 310 310 310 309 308 307 307 306 308 310 311 312 312 312 312 309 306 304 303 302 301 299 298 296 294 292
311 309 307 306 305 305 305 305 305 305 306 307 307 307 307 308 309 309 309 310 309 308 307 306 307 309 309 310 310 311 311 309 306 303 302 301 301 300 299 298 296 296
309 306 305 304 304 304 304 305 305 305 306 306 305 306 306 307 308 308 308 309 309 309 307 306 307 309 310 310 310 310 309 307 305 303 302 300 299 299 299 298 297 296
306 304 304 304 304 304 304 305 305 306 307 306 305 305 306 306 307 307 307 308 308 309 307 305 306 308 310 310 310 310 309 307 305 303 302 301 300 299 299 299 299 298
305 304 304 305 305 305 305 305 306 308 308 308 307 307 307 307 307 307 308 308 308 308 307 305 305 307 309 309 310 311 310 308 305 304 303 301 300 300 300 299 299 299
306 306 306 306 306 306 306 306 308 309 310 310 310 310 310 310 309 308 308 309 308 308 308 306 305 306 307 306 307 309 308 307 305 304 302 302 301 301 300 299 299 298
306 306 306 306 307 307 307 308 310 310 310 311 311 311 311 312 312 310 309 309 309 309 309 308 307 305 306 304 304 305 306 305 304 303 302 302 302 302 301 300 299 299
306 306 306 307 308 307 307 310 311 311 310 311 312 312 312 313 314 313 311 310 311 311 310 311 310 308 307 305 303 302 303 303 302 301 301 302 303 303 302 300 299 297
Height
1517 1516 1515 1513 1512 1511 1510 1508 1507 1506 1504 1502 1500 1498 1496 1494 1493 1492 1490 1489 1488 1488 1487 1486 1486 1485 1484 1483 1482 1481 1481 1481 1481 1480 1480 1480 1481 1481 1482 1482 1482 1481
1518 1517 1516 1515 1513 1512 1511 1509 1508 1507 1505 1503 1501 1499 1498 1496 1495 1493 1492 1491 1490 1489 1488 1487 1486 1485 1484 1483 1481 1480 1479 1479 1479 1479 1478 1478 1478 1478 1478 1479 1479 1478
1519 1518 1516 1515 1514 1512 1511 1510 1508 1507 1505 1503 1502 1500 1499 1497 1496 1495 1493 1492 1491 1490 1489 1488 1487 1485 1484 1483 1481 1480 1478 1478 1477 1477 1477 1476 1476 1476 1476 1476 1476 1475
1519 1518 1516 1515 1514 1512 1511 1510 1509 1507 1506 1504 1502 1501 1500 1498 1497 1496 1494 1493 1492 1491 1490 1488 1487 1486 1485 1483 1481 1480 1478 1477 1477 1476 1476 1476 1475 1475 1474 1474 1474 1473
1519 1518 1517 1515 1514 1513 1511 1510 1508 1507 1506 1504 1503 1502 1500 1499 1497 1496 1495 1494 1492 1491 1490 1489 1487 1486 1485 1483 1481 1480 1478 1477 1476 1476 1475 1475 1474 1474 1473 1472 1472 1471
1520 1518 1517 1515 1514 1512 1511 1509 1508 1507 1505 1504 1503 1501 1500 1499 1497 1496 1495 1494 1492 1491 1490 1489 1487 1486 1484 1483 1481 1480 1478 1477 1476 1475 1474 1474 1473 1473 1472 1471 1470 1469
1519 1518 1516 1515 1513 1512 1511 1509 1508 1506 1505 1504 1502 1501 1500 1498 1497 1496 1494 1493 1492 1491 1490 1488 1487 1485 1484 1482 1481 1479 1478 1476 1475 1474 1473 1473 1472 1471 1471 1470 1469 1468
1519 1517 1516 1514 1513 1511 1510 1508 1507 1506 1504 1503 1501 1500 1499 1497 1496 1495 1494 1492 1491 1490 1489 1487 1486 1485 1483 1481 1480 1478 1477 1476 1475 1474 1473 1472 1471 1470 1469 1468 1467 1466
1518 1517 1515 1513 1512 1510 1509 1507 1506 1504 1503 1502 1500 1499 1497 1496 1495 1493 1492 1491 1490 1488 1487 1486 1485 1483 1482 1480 1479 1477 1476 1475 1474 1473 1472 1471 1470 1469 1468 1467 1466 1465
1517 1515 1514 1512 1511 1509 1508 1506 1505 1503 1502 1500 1499 1498 1496 1495 1493 1492 1491 1489 1488 1487 1485 1484 1483 1481 1480 1479 1477 1476 1475 1474 1473 1472 1471 1470 1469 1468 1467 1466 1465 1464
1515 1514 1513 1511 1510 1508 1507 1505 1503 1502 1500 1499 1497 1496 1494 1493 1492 1490 1489 1487 1486 1485 1483 1482 1481 1479 1478 1477 1475 1474 1473 1472 1471 1471 1470 1469 1468 1467 1466 1465 1464 1463
1513 1512 1511 1509 1508 1506 1505 1504 1502 1500 1499 1497 1496 1494 1493 1491 1490 1488 1487 1486 1484 1483 1482 1480 1479 1477 1476 1474 1473 1472 1471 1470 1469 1468 1468 1467 1466 1465 1464 1464 1463 1462
1512 1510 1508 1507 1506 1504 1503 1502 1500 1499 1498 1496 1494 1493 1491 1489 1488 1487 1486 1484 1482 1481 1480 1478 1477 1476 1474 1473 1471 1470 1469 1468 1467 1466 1465 1465 1464 1463 1463 1462 1461 1460
1510 1508 1507 1505 1503 1502 1501 1499 1498 1497 1496 1494 1493 1491 1489 1488 1486 1485 1483 1482 1481 1479 1478 1477 1475 1474 1472 1471 1469 1468 1466 1465 1464 1463 1462 1462 1461 1461 1460 1460 1459 1458
1509 1507 1505 1503 1501 1500 1498 1497 1495 1494 1493 1492 1490 1489 1488 1486 1484 1483 1481 1480 1479 1477 1476 1475 1474 1472 1470 1468 1467 1465 1464 1462 1461 1460 1459 1459 1458 1458 1457 1457 1456 1456
1506 1505 1503 1501 1499 1498 1496 1494 1493 1491 1490 1488 1487 1486 1485 1484 1482 1481 1479 1477 1476 1475 1474 1473 1472 1471 1469 1467 1466 1464 1462 1460 1458 1457 1457 1456 1455 1454 1454 1453 1453 1452
1504 1502 1501 1499 1497 1495 1493 1492 1490 1488 1487 1485 1484 1483 1481 1480 1479 1478 1477 1475 1473 1472 1471 1470 1469 1468 1467 1465 1464 1463 1460 1458 1456 1454 1454 1453 1452 1451 1450 1449 1449 1448
1502 1500 1498 1496 1495 1493 1491 1489 1487 1485 1484 1482 1481 1479 1478 1477 1476 1474 1473 1472 1470 1469 1468 1467 1466 1465 1464 1462 1461 1460 1458 1456 1453 1451 1450 1449 1449 1448 1446 1445 1445 1444
1499 1497 1495 1493 1492 1490 1488 1486 1485 1483 1481 1479 1477 1476 1474 1473 1472 1471 1469 1468 1467 1466 1465 1464 1463 1462 1460 1459 1457 1456 1455 1453 1450 1449 1447 1446 1445 1444 1443 1442 1440 1439
1496 1494 1492 1490 1489 1487 1485 1484 1482 1480 1479 1477 1475 1473 1471 1470 1468 1467 1466 1465 1463 1462 1460 1460 1459 1459 1457 1455 1454 1452 1451 1449 1446 1445 1443 1442 1441 1440 1439 1437 1437 1435
1493 1491 1489 1487 1486 1484 1482 1481 1479 1477 1476 1474 1472 1471 1469 1467 1465 1464 1463 1461 1460 1458 1456 1456 1455 1455 1453 1452 1450 1448 1446 1444 1442 1440 1439 1438 1437 1436 1435 1433 1433 1432
1490 1487 1486 1484 1483 1481 1479 1477 1476 1474 1473 1471 1469 1468 1466 1465 1463 1461 1460 1458 1457 1455 1453 1452 1451 1451 1449 1448 1446 1444 1442 1440 1437 1435 1434 1433 1432 1431 1430 1429 1429 1428
1486 1484 1483 1481 1480 1478 1476 1475 1473 1471 1470 1468 1466 1465 1463 1462 1460 1459 1457 1455 1454 1452 1450 1448 1448 1447 1446 1444 1443 1441 1438 1436 1433 1431 1430 1428 1427 1426 1425 1424 1424 1423
1483 1481 1480 1478 1477 1475 1473 1472 1470 1469 1467 1465 1463 1461 1460 1459 1457 1456 1454 1453 1451 1449 1447 1445 1444 1444 1443 1441 1439 1438 1435 1432 1429 1427 1425 1424 1423 1422 1421 1420 1419 1418
1480 1479 1477 1475 1474 1472 1470 1469 1468 1466 1464 1462 1461 1459 1457 1456 1454 1452 1451 1450 1448 1446 1445 1442 1440 1440 1439 1438 1436 1435 1433 1430 1427 1424 1422 1420 1419 1417 1416 1415 1414 1413
1478 1476 1474 1473 1471 1469 1468 1467 1465 1463 1461 1460 1458 1456 1454 1453 1451 1449 1447 1446 1445 1443 1442 1440 1437 1436 1435 1434 1433 1432 1430 1427 1424 1421 1419 1417 1416 1414 1412 1411 1410 1409